�������l�o���
Date,Time,MP-1(��Sv/h),MP-2(��Sv/h),MP-3(��Sv/h),MP-4(��Sv/h),MP-5(��Sv/h),MP-6(��Sv/h),MP-7(��Sv/h),MP-8(��Sv/h),����,����(m/s),���J
2020/08/07,00:00,0.685,0.992,0.614,1.177,0.855,0.399,0.680,0.639,��,7.2,��
2020/08/07,00:10,0.684,0.990,0.614,1.177,0.854,0.399,0.681,0.638,��,6.7,��
2020/08/07,00:20,0.681,0.990,0.615,1.179,0.854,0.397,0.679,0.637,��,6.3,��
2020/08/07,00:30,0.683,0.991,0.615,1.179,0.857,0.399,0.679,0.639,��,6.8,��
2020/08/07,00:40,0.682,0.988,0.614,1.180,0.856,0.398,0.680,0.637,��,6.4,��
2020/08/07,00:50,0.681,0.990,0.614,1.177,0.854,0.397,0.681,0.638,��,6.0,��
2020/08/07,01:00,0.681,0.991,0.614,1.179,0.856,0.397,0.681,0.639,��,6.0,��
2020/08/07,01:10,0.682,0.988,0.612,1.179,0.855,0.398,0.680,0.638,��,8.1,��
2020/08/07,01:20,0.683,0.989,0.615,1.180,0.855,0.397,0.680,0.638,��,7.8,��
2020/08/07,01:30,0.682,0.987,0.612,1.180,0.855,0.398,0.679,0.639,��,7.1,��
2020/08/07,01:40,0.682,0.989,0.615,1.179,0.856,0.398,0.680,0.639,��,7.6,��
2020/08/07,01:50,0.682,0.988,0.615,1.180,0.856,0.398,0.680,0.638,��,6.7,��
2020/08/07,02:00,0.683,0.990,0.613,1.180,0.854,0.398,0.679,0.638,��쐼,6.7,��
2020/08/07,02:10,0.682,0.987,0.615,1.178,0.854,0.398,0.681,0.639,��쐼,5.6,��
2020/08/07,02:20,0.683,0.990,0.615,1.180,0.855,0.397,0.680,0.638,��쐼,4.8,��
2020/08/07,02:30,0.685,0.991,0.614,1.179,0.853,0.399,0.680,0.640,��쐼,5.1,��
2020/08/07,02:40,0.683,0.991,0.616,1.180,0.854,0.399,0.680,0.638,��쐼,6.2,��
2020/08/07,02:50,0.684,0.990,0.614,1.179,0.857,0.399,0.680,0.639,��쐼,5.7,��
2020/08/07,03:00,0.684,0.989,0.613,1.178,0.856,0.398,0.680,0.640,��,6.4,��
2020/08/07,03:10,0.683,0.989,0.615,1.181,0.856,0.399,0.681,0.639,��쐼,6.4,��
2020/08/07,03:20,0.683,0.988,0.614,1.179,0.855,0.400,0.681,0.638,��,7.0,��
2020/08/07,03:30,0.683,0.988,0.615,1.179,0.855,0.399,0.681,0.639,��,6.7,��
2020/08/07,03:40,0.683,0.989,0.614,1.180,0.856,0.400,0.681,0.639,��,7.4,��
2020/08/07,03:50,0.681,0.989,0.613,1.182,0.855,0.400,0.681,0.640,��,7.4,��
2020/08/07,04:00,0.681,0.990,0.614,1.181,0.857,0.398,0.681,0.637,��,7.6,��
2020/08/07,04:10,0.680,0.986,0.616,1.179,0.855,0.398,0.680,0.640,��,9.9,��
2020/08/07,04:20,0.680,0.988,0.613,1.180,0.855,0.401,0.680,0.639,��,7.3,��
2020/08/07,04:30,0.680,0.986,0.614,1.178,0.854,0.399,0.681,0.639,��,8.1,��
2020/08/07,04:40,0.682,0.986,0.614,1.181,0.853,0.399,0.682,0.638,��쐼,6.5,��
2020/08/07,04:50,0.681,0.987,0.614,1.181,0.855,0.398,0.682,0.639,��쐼,7.0,��
2020/08/07,05:00,0.682,0.989,0.614,1.180,0.854,0.398,0.682,0.639,��쐼,6.5,��
2020/08/07,05:10,0.683,0.988,0.613,1.180,0.853,0.398,0.680,0.639,��쐼,5.5,��
2020/08/07,05:20,0.683,0.991,0.614,1.180,0.856,0.397,0.679,0.640,�쐼,5.9,��
2020/08/07,05:30,0.683,0.990,0.613,1.182,0.855,0.398,0.681,0.640,��쐼,7.7,��
2020/08/07,05:40,0.681,0.992,0.616,1.180,0.855,0.399,0.681,0.639,��,7.4,��
2020/08/07,05:50,0.683,0.988,0.614,1.179,0.856,0.399,0.679,0.640,��쐼,6.9,��
2020/08/07,06:00,0.684,0.991,0.612,1.179,0.854,0.398,0.682,0.639,��쐼,5.8,��
2020/08/07,06:10,0.682,0.988,0.613,1.180,0.856,0.399,0.682,0.639,��,5.1,��
2020/08/07,06:20,0.683,0.990,0.614,1.183,0.855,0.400,0.681,0.640,��,5.7,��
2020/08/07,06:30,0.683,0.989,0.614,1.181,0.856,0.399,0.681,0.638,��,5.0,��
2020/08/07,06:40,0.684,0.990,0.612,1.179,0.852,0.401,0.679,0.639,��,4.8,��
2020/08/07,06:50,0.684,0.989,0.611,1.184,0.854,0.400,0.680,0.638,��,4.9,��
2020/08/07,07:00,0.683,0.988,0.610,1.178,0.855,0.400,0.681,0.638,��,4.7,��
2020/08/07,07:10,0.684,0.988,0.614,1.180,0.854,0.400,0.682,0.638,��,4.6,��
2020/08/07,07:20,0.683,0.988,0.613,1.181,0.855,0.399,0.680,0.640,��,4.8,��
2020/08/07,07:30,0.684,0.987,0.614,1.177,0.858,0.400,0.683,0.640,��,4.7,��
2020/08/07,07:40,0.684,0.988,0.614,1.178,0.856,0.399,0.682,0.640,��,5.6,��
2020/08/07,07:50,0.685,0.988,0.613,1.181,0.856,0.398,0.682,0.641,��,5.8,��
2020/08/07,08:00,0.684,0.988,0.614,1.179,0.855,0.400,0.682,0.640,��,5.4,��
2020/08/07,08:10,0.686,0.986,0.615,1.180,0.856,0.400,0.683,0.637,��,6.3,��
2020/08/07,08:20,0.685,0.987,0.615,1.180,0.856,0.400,0.680,0.639,��,5.9,��
2020/08/07,08:30,0.684,0.987,0.615,1.180,0.856,0.401,0.682,0.639,��,4.8,��
2020/08/07,08:40,0.686,0.984,0.613,1.179,0.856,0.401,0.681,0.635,��,5.0,��
2020/08/07,08:50,0.686,0.986,0.614,1.179,0.853,0.400,0.682,0.638,��,6.5,��
2020/08/07,09:00,0.687,0.987,0.615,1.184,0.855,0.399,0.682,0.639,��,6.5,��
2020/08/07,09:10,0.684,0.989,0.613,1.181,0.854,0.400,0.683,0.638,��,5.6,��
2020/08/07,09:20,0.687,0.983,0.614,1.181,0.856,0.400,0.683,0.638,��,6.5,��
2020/08/07,09:30,0.686,0.989,0.614,1.182,0.857,0.401,0.684,0.638,��,6.1,��
2020/08/07,09:40,0.687,0.988,0.616,1.181,0.858,0.400,0.681,0.640,��,8.0,��
2020/08/07,09:50,0.685,0.986,0.614,1.184,0.857,0.399,0.681,0.638,��,8.0,��
2020/08/07,10:00,0.685,0.987,0.613,1.182,0.858,0.399,0.681,0.640,��,8.5,��
2020/08/07,10:10,0.688,0.984,0.615,1.181,0.860,0.399,0.682,0.640,��,8.3,��
2020/08/07,10:20,0.687,0.987,0.614,1.183,0.859,0.398,0.682,0.638,��,8.0,��
2020/08/07,10:30,0.684,0.990,0.613,1.185,0.860,0.397,0.682,0.638,��,8.4,��
2020/08/07,10:40,0.688,0.990,0.614,1.183,0.860,0.400,0.682,0.640,��,7.8,��
2020/08/07,10:50,0.686,0.988,0.612,1.182,0.858,0.398,0.681,0.639,��,7.3,��
2020/08/07,11:00,0.687,0.990,0.615,1.182,0.858,0.399,0.682,0.639,��,6.9,��
2020/08/07,11:10,0.688,0.990,0.615,1.181,0.856,0.400,0.683,0.640,��,6.7,��
2020/08/07,11:20,0.689,0.992,0.614,1.183,0.858,0.399,0.683,0.640,��,5.3,��
2020/08/07,11:30,0.688,0.992,0.614,1.183,0.856,0.400,0.684,0.639,��,5.1,��
2020/08/07,11:40,0.688,0.994,0.615,1.184,0.857,0.401,0.681,0.638,��,6.2,��
2020/08/07,11:50,0.687,0.994,0.616,1.181,0.858,0.400,0.682,0.639,��,5.7,��
2020/08/07,12:00,0.687,0.994,0.615,1.184,0.861,0.401,0.683,0.639,��,4.7,��
2020/08/07,12:10,0.686,0.996,0.615,1.183,0.857,0.400,0.683,0.640,��,4.7,��
2020/08/07,12:20,0.688,0.993,0.616,1.180,0.859,0.401,0.683,0.640,��,4.4,��
2020/08/07,12:30,0.689,0.994,0.615,1.183,0.861,0.400,0.682,0.640,��,4.3,��
2020/08/07,12:40,0.689,0.994,0.615,1.183,0.859,0.400,0.683,0.640,��쐼,3.2,��
2020/08/07,12:50,0.690,0.993,0.616,1.187,0.860,0.399,0.683,0.640,��,3.3,��
2020/08/07,13:00,0.690,0.993,0.615,1.185,0.861,0.400,0.683,0.639,��쓌,3.7,��
2020/08/07,13:10,0.689,0.996,0.618,1.184,0.861,0.399,0.683,0.638,��,4.8,��
2020/08/07,13:20,0.689,0.992,0.616,1.186,0.861,0.400,0.682,0.639,��쓌,5.0,��
2020/08/07,13:30,0.689,0.993,0.615,1.185,0.861,0.400,0.683,0.640,��쓌,4.9,��
2020/08/07,13:40,0.689,0.992,0.618,1.186,0.861,0.401,0.683,0.638,��,4.9,��
2020/08/07,13:50,0.688,0.994,0.618,1.185,0.860,0.400,0.685,0.641,��,4.6,��
2020/08/07,14:00,0.688,0.995,0.617,1.184,0.861,0.400,0.683,0.640,��,3.9,��
2020/08/07,14:10,0.690,0.993,0.617,1.184,0.862,0.400,0.681,0.639,��,3.8,��
2020/08/07,14:20,0.690,0.993,0.618,1.187,0.863,0.400,0.683,0.639,��쓌,5.3,��
2020/08/07,14:30,0.690,0.992,0.619,1.182,0.864,0.399,0.684,0.640,��,4.7,��
2020/08/07,14:40,0.692,0.989,0.617,1.185,0.864,0.399,0.684,0.640,��쐼,5.1,��
2020/08/07,14:50,0.688,0.992,0.617,1.186,0.863,0.398,0.683,0.641,��쐼,3.1,��
2020/08/07,15:00,0.690,0.993,0.618,1.186,0.864,0.399,0.684,0.640,�쐼,2.5,��
2020/08/07,15:10,0.688,0.994,0.618,1.187,0.862,0.400,0.683,0.638,��,2.6,��
2020/08/07,15:20,0.691,0.992,0.618,1.187,0.865,0.400,0.685,0.640,��쐼,1.7,��
2020/08/07,15:30,0.691,0.995,0.618,1.189,0.862,0.399,0.683,0.637,���쐼,1.4,��
2020/08/07,15:40,0.690,0.990,0.618,1.189,0.863,0.398,0.683,0.640,��,2.0,��
2020/08/07,15:50,0.692,0.994,0.617,1.187,0.863,0.401,0.684,0.639,�k,4.0,��
2020/08/07,16:00,0.690,0.994,0.619,1.188,0.863,0.400,0.684,0.639,�k,4.5,��
2020/08/07,16:10,0.689,0.994,0.618,1.188,0.860,0.398,0.683,0.638,�k�k��,3.9,��
2020/08/07,16:20,0.689,0.993,0.618,1.185,0.863,0.400,0.684,0.641,�k,5.4,��
2020/08/07,16:30,0.689,0.993,0.618,1.188,0.863,0.399,0.681,0.640,�k,5.7,��
2020/08/07,16:40,0.689,0.993,0.620,1.187,0.861,0.399,0.682,0.641,�k,5.2,��
2020/08/07,16:50,0.689,0.993,0.618,1.184,0.863,0.398,0.683,0.641,�k,5.1,��
2020/08/07,17:00,0.688,0.994,0.618,1.187,0.863,0.396,0.683,0.640,�k,3.7,��
2020/08/07,17:10,0.689,0.994,0.619,1.187,0.864,0.398,0.683,0.639,�k�k��,4.0,��
2020/08/07,17:20,0.687,0.994,0.618,1.188,0.863,0.398,0.681,0.640,�k�k��,5.6,��
2020/08/07,17:30,0.689,0.993,0.616,1.185,0.863,0.397,0.682,0.640,�k,5.9,��
2020/08/07,17:40,0.689,0.994,0.616,1.187,0.860,0.396,0.683,0.640,�k,6.3,��
2020/08/07,17:50,0.688,0.993,0.615,1.187,0.862,0.397,0.683,0.639,�k,6.9,��
2020/08/07,18:00,0.690,0.991,0.616,1.186,0.861,0.396,0.682,0.641,�k,5.9,��
2020/08/07,18:10,0.688,0.991,0.617,1.189,0.861,0.397,0.684,0.639,�k,5.7,��
2020/08/07,18:20,0.689,0.993,0.617,1.186,0.862,0.395,0.682,0.640,�k,5.1,��
2020/08/07,18:30,0.688,0.992,0.617,1.187,0.862,0.397,0.684,0.640,�k,5.7,��
2020/08/07,18:40,0.688,0.994,0.618,1.187,0.861,0.398,0.683,0.641,�k,5.2,��
2020/08/07,18:50,0.689,0.994,0.617,1.187,0.862,0.398,0.683,0.639,�k,4.4,��
2020/08/07,19:00,0.689,0.994,0.618,1.190,0.863,0.396,0.682,0.641,�k,3.9,��
2020/08/07,19:10,0.690,0.993,0.618,1.187,0.863,0.398,0.682,0.641,�k,4.5,�L
2020/08/07,19:20,0.688,0.994,0.618,1.189,0.864,0.397,0.683,0.640,�k,3.8,�L
2020/08/07,19:30,0.689,0.994,0.618,1.188,0.862,0.397,0.683,0.640,�k,3.6,��
2020/08/07,19:40,0.687,0.994,0.617,1.188,0.865,0.397,0.683,0.639,�k,4.1,��
2020/08/07,19:50,0.688,0.994,0.619,1.189,0.862,0.398,0.684,0.640,�k,3.3,�L
2020/08/07,20:00,0.688,0.992,0.619,1.189,0.862,0.398,0.683,0.640,�k,3.9,�L
2020/08/07,20:10,0.687,0.993,0.618,1.189,0.861,0.397,0.684,0.639,�k,4.0,�L
2020/08/07,20:20,0.689,0.993,0.617,1.187,0.860,0.396,0.683,0.641,�k�k��,3.4,�L
2020/08/07,20:30,0.687,0.992,0.619,1.186,0.862,0.397,0.683,0.641,�k�k��,3.2,�L
2020/08/07,20:40,0.687,0.994,0.618,1.188,0.863,0.399,0.683,0.643,�k,3.5,��
2020/08/07,20:50,0.686,0.993,0.617,1.185,0.862,0.398,0.681,0.641,�k�k��,3.4,��
2020/08/07,21:00,0.686,0.993,0.618,1.186,0.863,0.397,0.684,0.641,�k�k��,2.8,��
2020/08/07,21:10,0.687,0.991,0.617,1.188,0.861,0.398,0.685,0.642,�k,1.7,�L
2020/08/07,21:20,0.687,0.992,0.617,1.188,0.863,0.397,0.682,0.641,�k��,1.7,�L
2020/08/07,21:30,0.687,0.993,0.618,1.189,0.863,0.397,0.683,0.641,�k�k��,2.2,�L
2020/08/07,21:40,0.686,0.990,0.618,1.187,0.859,0.397,0.682,0.641,�k�k��,2.2,��
2020/08/07,21:50,0.688,0.989,0.617,1.185,0.862,0.398,0.684,0.641,�k�k��,2.6,��
2020/08/07,22:00,0.686,0.988,0.616,1.186,0.862,0.397,0.684,0.641,�k�k��,3.1,�L
2020/08/07,22:10,0.685,0.990,0.617,1.190,0.860,0.397,0.683,0.640,�k�k��,3.1,�L
2020/08/07,22:20,0.685,0.991,0.616,1.185,0.860,0.395,0.684,0.639,�k�k��,2.9,��
2020/08/07,22:30,0.686,0.989,0.615,1.188,0.860,0.397,0.682,0.642,�k,2.6,��
2020/08/07,22:40,0.685,0.990,0.616,1.188,0.860,0.397,0.682,0.640,�k,2.6,��
2020/08/07,22:50,0.686,0.990,0.615,1.189,0.860,0.396,0.684,0.639,�k,3.0,��
2020/08/07,23:00,0.686,0.990,0.615,1.188,0.860,0.396,0.682,0.640,�k�k��,1.4,��
2020/08/07,23:10,0.685,0.988,0.617,1.188,0.860,0.396,0.684,0.641,�k,1.7,�L
2020/08/07,23:20,0.684,0.989,0.616,1.188,0.861,0.396,0.683,0.640,�k,1.7,��
2020/08/07,23:30,0.683,0.991,0.615,1.188,0.860,0.396,0.682,0.641,�k,2.0,��
2020/08/07,23:40,0.685,0.990,0.616,1.190,0.858,0.397,0.682,0.639,�k�k��,2.3,��
2020/08/07,23:50,0.685,0.988,0.616,1.187,0.861,0.395,0.682,0.641,�k�k��,1.2,��
